User: anonymous   Login
Location: ActonStarParty
(42.4766°N, 71.4538°W)
Time: 21:42:51
(UTC-05:00)
Language:

ITAMSAT 1 - Orbit

View from above orbital plane
View from above orbital plane
View from above satellite
View from above satellite

Ground track
Ground track

The orbit data is extracted from the following two-line orbital elements,

1 22826U 93061D   14329.51964582  .00000261  00000-0  11801-3 0  5841
2 22826 098.6769 275.0813 0009268 170.3994 189.7367 14.30095253103974
Epoch (UTC): 25 November 2014 12:28:17
Eccentricity: 0.0009268
inclination: 98.6769°
perigee height: 785 km
apogee height: 798 km
right ascension of ascending node: 275.0813°
argument of perigee: 170.3994°
revolutions per day: 14.30095253
mean anomaly at epoch: 189.7367°
orbit number at epoch: 10397

The dashed part of the orbit path shows where the satellite is in the earth's shadow,  

DLR